星链-37025(STARLINK-37025)

导读

STARLINK-37025(NORAD编号68223)是美国太空探索技术公司(SpaceX)旗下星链(Starlink)项目的低轨互联网卫星,于2024年12月8日发射,截至2026年4月已在轨飞行约488天。该卫星采用Starlink V1.0平台,运行在近地点约355公里、远地点约357公里的近地轨道,轨道倾角43.001°,绕地球运行周期约91.66分钟。作为星链全球卫星互联网星座的组成部分,它旨在为全球提供高速低延迟互联网服务,尤其服务偏远地区,并可为特定行业通信提供支持。目前卫星处于在轨运行状态。

基本信息
目录编号:
68223
目录名称:
STARLINK-37025
国际标识:
2026-053S
轨道中心:
EARTH
卫星名称:
星链-37025
卫星全名:
星链-37025(STARLINK-37025)
卫星状态:
在轨 (已飞行180 天)
发射日期:
2026-03-17 UTC
国别 :
美国 (US)
星等 :
--
该卫星已列入 空间交会检测服务 Space Conjunction Data Service (SCDS) ,当前飞行风险评估等级: 无高风险
轨道信息
数据来源 国际轨道数据
星历时间: 2026-09-13T10:50:27+0800
7小时前
查看轨道信息
半长轴: 6843.67km
偏心率: 0.0001327
轨道倾角: 97.285°
近地点辐角 94.491°
升交点赤经 130.024°
平近点角 265.648°
近地点: 464.624km
远地点: 466.442km
周期: 93.906分钟
每日圈数: 15.334485
详细信息
固有亮度:
5
最大亮度:
2.5
卫星平台:
Starlink V1.0
覆盖范围:
全球
运营商:
太空探索技术公司
运营商所在国:
美国
制造商(研发单位):
太空探索技术公司
制造商所在国:
美国
使用方式:
暂无
卫星简介
Starlink 计划是 SpaceX 推出的全球卫星互联网项目,通过发射低轨道卫星,为全球尤其是偏远地区提供高速、低延迟的互联网服务。自 2019 年起,Starlink 已部署数千颗卫星,旨在缩小全球数字鸿沟,推动互联网普及。该项目还为军事、航空等行业提供通信支持,带来广泛经济效益。
2D轨道图
3D轨道图
轨道高度分析图
轨道倾角分析图
轨道综合分析图
查看轨道综合分析图
与全量物体交会距离演化趋势
与全量物体交会风险概率演化趋势